Showing default

CENTISPACE-1 S14, 62583

Orbit data source: Space-Track

CENTISPACE-1 S14, 62583 is a payload satellite owned by Centispace (CN) in LEO that was launched on Mon, 13 Jan 2025 UTC via a JIELONG-3 launch vehicle from the Yellow Sea Launch Area, China (YSLA). Payload-class satellites include a variety of spacecraft equipped with specific instruments for various scientific and technological missions. These include communications satellites like Starlink; space stations such as the ISS; scientific satellites like the Hubble; Earth observation satellites from companies like Planet Labs, Umbra, and HawkEye 360; GPS; miniature CubeSats for education and research; and military/defense satellites.

Loading next visibility...
Identifier
62583, 2025-007J
Orbit
LEO
Country
Flag of CNCN / PRC
Related business
Manufacturer
DFH Shenzhen
Mission
Operational Commercial Nav/Com
Bus & Motor
WK01, Unknown motor
Mass
140 kg wet, 140 kg dry
Launch date (UTC)
2025-01-13 (1 year ago)
Launch vehicle
JIELONG-3
Launch site
Yellow Sea Launch Area, China (YSLA)
Object type
Payload
Rocket body
Debris
Shape & HBR
Box + 2 Pan, 1.0 m
Radar Cross Section
0.833 m², Medium (>0.1 m² and < 1m²)

Expand to show TLE details & history
Last TLE update: 3 days ago

TLE from 3 days ago
0 CENTISPACE-1 S14
1 62583U 25007J   26032.02140648  .00000114  00000-0  18069-3 0  9999
2 62583  54.9916  51.1566 0008688 274.3994  85.5979 13.98895620 55860
Epoch: 2026-02-01T00:30Z
TLE epoch observation values (Epoch: 2026-02-01T00:30:49.519Z)
Latitude
0.00004°
Longitude
-87.78673°
Altitude
898.174 km
Speed
7.404 km/s
True Right ascension
03h 24m 37s
True Declination
0° 00' 00"
Sunlit
Object was in daylight at epoch
Visualization orbit readout
Latitude
Unknown
Longitude
Unknown
Altitude
Unknown
Speed
Unknown
Apparent Right ascension
Unknown
Apparent Declination
Unknown
Sunlit
N/A
Visualization observer readout
Local Sidereal Time
21:57:38
Azimuth
Unknown
Elevation
Unknown
Doppler factor
Unknown
Orbital elements
Apogee altitude
903.909 km
Perigee altitude
891.267 km
Semi-major axis
7,275.725 km
Eccentricity
0.00087
Inclination
54.9916°
RAAN
51.1566°
Arg. of periapsis
274.3994°
True anomaly
85.69717°
Mean anomaly
85.5979°
Eccentric anomaly
85.64754°
Mean motion
3.49727 °/min
Orbital period
102.94 mins
BSTAR
0.00018069
Loading maneuver chart data...
Computing Atmospheric mass density...
Loading historical data...
Loading historical data...
Loading historical data...
Loading historical data...
Loading historical data...
Loading historical data...
Loading historical data...

Documentation

Showing up to 5 results
|